User: anonymous   Login
Location: Unspecified
(0.0000°N, 0.0000°E)
Time: 13:43:53
(UTC+00:00)
Language:

MINXSS - Orbit

View from above orbital plane
View from above orbital plane
View from above satellite
View from above satellite

Ground track
Ground track

The orbit data is extracted from the following two-line orbital elements,

1 41474U 98067HU  17114.86328855 +.00675434 +22336-3 +11398-2 0  9991
2 41474 051.6487 266.5936 0008429 305.7859 054.2368 16.02074579053906
Epoch (UTC): 24 April 2017 20:43:08
Eccentricity: 0.0008429
inclination: 51.6487°
perigee height: 263 km
apogee height: 274 km
right ascension of ascending node: 266.5936°
argument of perigee: 305.7859°
revolutions per day: 16.02074579
mean anomaly at epoch: 54.2368°
orbit number at epoch: 5390

The dashed part of the orbit path shows where the satellite is in the earth's shadow,  

DLR